Showing default

COSMOS 1579, 15085

Orbit data source: Space-Track

COSMOS 1579, 15085 is a payload satellite owned by VMF (CIS) in LEO that was launched on Fri, 29 Jun 1984 UTC via a TSIKLON-2 launch vehicle from the Tyuratam Missile And Space Complex (TTMTR). Payload-class satellites include a variety of spacecraft equipped with specific instruments for various scientific and technological missions. These include communications satellites like Starlink; space stations such as the ISS; scientific satellites like the Hubble; Earth observation satellites from companies like Planet Labs, Umbra, and HawkEye 360; GPS; miniature CubeSats for education and research; and military/defense satellites.

Loading next visibility...
Identifier
15085, 1984-069A
Orbit
LEO
Country
Flag of CISCIS
Related business
Manufacturer
Kometa
Mission
Spacecraft
Bus & Motor
US-A REACTOR, Unknown motor
Mass
4,300 kg wet, 1,154 kg dry
Launch date (UTC)
1984-06-29 (41 years ago)
Launch vehicle
TSIKLON-2
Launch site
Tyuratam Missile And Space Complex (TTMTR)
Object type
Payload
Rocket body
Debris
Shape & HBR
Unknown
Radar Cross Section
Large (>1 m²)

Expand to show TLE details & history
Last TLE update: 11 hours ago

TLE from 11 hours ago
0 COSMOS 1579
1 15085U 84069A   25349.97235310 -.00000036  00000-0  45824-4 0  9996
2 15085  65.0489 199.3558 0031814  98.1020 262.3653 13.86208244100387
Epoch: 2025-12-15T23:20Z
TLE epoch observation values (Epoch: 2025-12-15T23:20:11.307Z)
Latitude
-0.00003°
Longitude
124.44542°
Altitude
947.051 km
Speed
7.377 km/s
True Right ascension
13h 17m 25s
True Declination
0° 00' 00"
Sunlit
Object was in daylight at epoch
Visualization orbit readout
Latitude
Unknown
Longitude
Unknown
Altitude
Unknown
Speed
Unknown
Apparent Right ascension
Unknown
Apparent Declination
Unknown
Sunlit
N/A
Visualization observer readout
Local Sidereal Time
08:40:54
Azimuth
Unknown
Elevation
Unknown
Doppler factor
Unknown
Orbital elements
Apogee altitude
963.835 km
Perigee altitude
917.268 km
Semi-major axis
7,318.688 km
Eccentricity
0.00318
Inclination
65.0489°
RAAN
199.3558°
Arg. of periapsis
98.102°
True anomaly
262.00416°
Mean anomaly
262.3653°
Eccentric anomaly
262.18471°
Mean motion
3.46652 °/min
Orbital period
103.85 mins
BSTAR
0.000045824
Loading maneuver chart data...
Computing Atmospheric mass density...

Documentation

Showing up to 5 results
|